Starlink 33737

operational
NORAD ID: 63456 Int'l Des: 2025-069 Owner: SPXS Country: US Constellation: starlink
LEOCIRCULAR

Über Starlink 33737

Beschreibung wird geladen...

Live-Position

3D-Globus wird geladen...

Nächste Überflüge

Höhenverlauf

Altitude vs Time

uPlot chart will show altitude changes over time

Zweizeiliger Elementsatz

1 63456U 25069Z 25308.59630637 .00030188 00000-0 10275-2 0 9990
2 63456 53.1604 3.4102 0001664 50.3112 309.8035 15.30190341 34141
Epoch: 4. Nov. 2025 • Age: 8 hours

Aktueller Status

Höhe 487.8 km
Geschwindigkeit 7.62 km/s
Subsatellitenpunkt -38.08°S, 47.13°W
Startdatum 4. Apr. 2025
Alter 0.5 years
Typ internet

Technische Details

Klassifizierung Payload
Masse 575.00 kg
Trockenmasse 530.00 kg
Gesamtmasse 575.00 kg
Länge 0.30 m
Durchmesser 4.10 m
Spannweite 29.00 m
Form Box + pan
Hersteller SPXS
Bus-Typ Starlink V2MO
Phasenstatus In Orbit
Besitzer/Staat SPXS/US

Große Konstellationen

Loading constellations...